Overview Statistics Trail Chart Weather Telemetry Raw packets
 

This is the latest recevied weather packets stored in our database for station/object EA4URC-13. If no packets are shown the sender has not sent any weather packets the latest 10 day(s).

<< 36 37 38 39 40 >>
Time Temp. Humidity Pressure Rain* Wind** Luminosity Snow
1787803357 19.44° C 43% 1018.1 hPa - - - -
1787802457 18.33° C 46% 1018.1 hPa - - - -
1787801556 18.33° C 45% 1018.1 hPa - - - -
1787800656 18.33° C 45% 1018.3 hPa - - - -
1787799756 18.89° C 43% 1018.2 hPa - - - -
1787798856 18.33° C 44% 1018.2 hPa - - - -
1787797956 18.33° C 42% 1018.3 hPa - - - -
1787797056 18.33° C 40% 1018.3 hPa - - - -
1787796156 19.44° C 38% 1018.5 hPa - - - -
1787795258 19.44° C 37% 1018.6 hPa - - - -
1787794356 20.56° C 35% 1018.7 hPa - - - -
1787793456 20.56° C 33% 1018.8 hPa - - - -
1787792556 19.44° C 33% 1018 hPa - - - -
1787791656 19.44° C 33% 1018.9 hPa - - - -
1787790757 20° C 32% 1018.9 hPa - - - -
1787789856 20.56° C 30% 1019.1 hPa - - - -
1787788956 20.56° C 29% 1019 hPa - - - -
1787788056 20° C 29% 1019.1 hPa - - - -
1787787156 21.11° C 28% 1019.2 hPa - - - -
1787786256 21.11° C 28% 1019 hPa - - - -
1787785356 21.11° C 27% 1018.9 hPa - - - -
1787784456 21.11° C 26% 1019 hPa - - - -
1787783556 21.67° C 24% 1019 hPa - - - -
1787782656 22.78° C 24% 1019.1 hPa - - - -
1787781756 22.22° C 24% 1019 hPa - - - -

* Rain since midnight (hover to see other rain measurements)
** Current wind speed in m/s (hover to see current wind gust speed)